Location: Biltmore Gardens
(41.6070°N, 83.4666°W)
Time: 14:08:15
(UTC+00:00)

Cosmos 1656 Rocket - Pass Details

Date: 14 July 2020
Orbit: 797 x 845 km, 71.1° (Epoch: 04 August)

Event Time Altitude Azimuth Distance (km) Brightness Sun altitude
Rises 05:34:53 0° 331° (NNW) 3,310 7.8 -26.8°
Reaches altitude 10° 05:37:20 10° 328° (NNW) 2,379 6.8 -26.8°
Enters shadow 05:42:18 54° 265° (W) 969 3.9 -26.8°
